This is the latest recevied weather packets stored in our database for station/object HS5BOG-13. If no packets are shown the sender has not sent any weather packets the latest 10 day(s).
| Time | Temp. | Humidity | Pressure | Rain* | Wind** | Luminosity | Snow |
|---|---|---|---|---|---|---|---|
| 1777968962 | 30.56° C | 75% | 990.6 hPa | - | - | - | - |
| 1777968357 | 30° C | 76% | 990.8 hPa | - | - | - | - |
| 1777967751 | 30° C | 76% | 991 hPa | - | - | - | - |
| 1777967145 | 30° C | 77% | 991.3 hPa | - | - | - | - |
| 1777966539 | 30° C | 77% | 991.5 hPa | - | - | - | - |
| 1777965934 | 30° C | 77% | 991.7 hPa | - | - | - | - |
| 1777965328 | 30° C | 76% | 992 hPa | - | - | - | - |
| 1777964723 | 30° C | 78% | 992 hPa | - | - | - | - |
| 1777964117 | 29.44° C | 81% | 992.3 hPa | - | - | - | - |
| 1777963511 | 29.44° C | 82% | 992.5 hPa | - | - | - | - |
| 1777962906 | 29.44° C | 82% | 992.8 hPa | - | - | - | - |
| 1777962300 | 29.44° C | 82% | 993 hPa | - | - | - | - |
| 1777961694 | 29.44° C | 83% | 993.4 hPa | - | - | - | - |
| 1777961089 | 29.44° C | 83% | 993.7 hPa | - | - | - | - |
| 1777960483 | 29.44° C | 84% | 994 hPa | - | - | - | - |
| 1777959878 | 28.89° C | 85% | 994.3 hPa | - | - | - | - |
| 1777959272 | 28.89° C | 85% | 994.5 hPa | - | - | - | - |
| 1777958666 | 28.89° C | 85% | 994.6 hPa | - | - | - | - |
| 1777958061 | 28.89° C | 84% | 995 hPa | - | - | - | - |
| 1777957455 | 28.33° C | 86% | 995.4 hPa | - | - | - | - |
| 1777956849 | 28.33° C | 85% | 995.4 hPa | - | - | - | - |
| 1777956244 | 28.33° C | 89% | 995.4 hPa | - | - | - | - |
| 1777955638 | 28.33° C | 91% | 995.6 hPa | - | - | - | - |
| 1777955033 | 28.33° C | 91% | 995.7 hPa | - | - | - | - |
| 1777954427 | 28.33° C | 92% | 995.9 hPa | - | - | - | - |
* Rain since midnight (hover to see other rain measurements)
** Current wind speed in m/s (hover to see current wind gust speed)